ANZ948 NZWN-NZWU

Flight info

Callsign ANZ948
Flight time 0h 23m
Altitude 11000
Route KAPTI H482 WU
Aircraft A20N/M-SDE2E3FGHIRWXY/LB1

Departure

Time 2026-04-25 23:59
Airport Wellington International Airport (NZWN)

Arrival

Time 2026-04-26 00:23
Airport Wanganui Airport (NZWU)
Time Latitude Longitude Altitude Speed Heading
2026-04-25 23:42 -41.32805 174.80956 29 ft 0 kts 115°
2026-04-25 23:53 -41.32798 174.80938 29 ft 2 kts 115°
2026-04-25 23:53 -41.32791 174.80918 29 ft 2 kts 132°
2026-04-25 23:53 -41.32777 174.80906 29 ft 2 kts 170°
2026-04-25 23:53 -41.32766 174.80905 29 ft 0 kts 193°
2026-04-25 23:55 -41.32781 174.80899 29 ft 4 kts 197°
2026-04-25 23:55 -41.32813 174.80877 29 ft 6 kts 221°
2026-04-25 23:56 -41.32841 174.80821 29 ft 8 kts 223°
2026-04-25 23:56 -41.32903 174.80802 29 ft 10 kts 185°
2026-04-25 23:56 -41.32984 174.80795 29 ft 13 kts 182°
2026-04-25 23:56 -41.33081 174.80789 29 ft 15 kts 182°
2026-04-25 23:57 -41.33192 174.80781 29 ft 17 kts 183°
2026-04-25 23:57 -41.33316 174.80776 29 ft 19 kts 181°
2026-04-25 23:57 -41.33452 174.80768 29 ft 20 kts 183°
2026-04-25 23:57 -41.33489 174.80753 29 ft 0 kts 214°
2026-04-25 23:58 -41.33500 174.80741 30 ft 7 kts 222°
2026-04-25 23:58 -41.33508 174.80644 30 ft 15 kts 328°
2026-04-25 23:59 -41.33465 174.80637 30 ft 0 kts
2026-04-25 23:59 -41.33413 174.80641 30 ft 36 kts
2026-04-25 23:59 -41.32786 174.80685 101 ft 138 kts
2026-04-25 23:59 -41.31660 174.80776 757 ft 181 kts
2026-04-26 00:00 -41.30331 174.80879 2003 ft 201 kts 360°
2026-04-26 00:00 -41.28838 174.80965 2850 ft 230 kts 357°
2026-04-26 00:00 -41.27166 174.80918 3636 ft 248 kts 344°
2026-04-26 00:00 -41.25439 174.80375 4519 ft 262 kts 339°
2026-04-26 00:01 -41.23637 174.79713 5485 ft 275 kts 340°
2026-04-26 00:01 -41.21771 174.79035 6650 ft 280 kts 341°
2026-04-26 00:01 -41.19877 174.78365 7927 ft 282 kts 340°
2026-04-26 00:01 -41.17978 174.77717 9278 ft 284 kts 342°
2026-04-26 00:02 -41.15976 174.77505 10271 ft 299 kts
2026-04-26 00:02 -41.13837 174.78110 10771 ft 330 kts 12°
2026-04-26 00:02 -41.11622 174.79049 10956 ft 330 kts 15°
2026-04-26 00:02 -41.09519 174.80001 11003 ft 311 kts 15°
2026-04-26 00:03 -41.07496 174.80906 11007 ft 305 kts 15°
2026-04-26 00:03 -41.05513 174.81774 11003 ft 304 kts 15°
2026-04-26 00:03 -41.03498 174.82642 11003 ft 304 kts 15°
2026-04-26 00:03 -41.01485 174.83503 11003 ft 304 kts 15°
2026-04-26 00:04 -40.99469 174.84361 11002 ft 304 kts 14°
2026-04-26 00:04 -40.97455 174.85217 11009 ft 304 kts 14°
2026-04-26 00:04 -40.95440 174.86071 11010 ft 304 kts 15°
2026-04-26 00:04 -40.93427 174.86923 11015 ft 304 kts 14°
2026-04-26 00:05 -40.91411 174.87776 11019 ft 304 kts 14°
2026-04-26 00:05 -40.89397 174.88627 11016 ft 304 kts 14°
2026-04-26 00:05 -40.87384 174.89477 11015 ft 304 kts 14°
2026-04-26 00:05 -40.85370 174.90327 11012 ft 304 kts 14°
2026-04-26 00:06 -40.83355 174.91177 11015 ft 304 kts 14°
2026-04-26 00:06 -40.81344 174.92025 11014 ft 304 kts 14°
2026-04-26 00:06 -40.79332 174.92871 11023 ft 304 kts 14°
2026-04-26 00:06 -40.77320 174.93718 11021 ft 303 kts 15°
2026-04-26 00:07 -40.75309 174.94564 11023 ft 303 kts 15°
2026-04-26 00:07 -40.73299 174.95409 11021 ft 303 kts 15°
2026-04-26 00:07 -40.71291 174.96253 11020 ft 303 kts 15°
2026-04-26 00:07 -40.69281 174.97097 11025 ft 303 kts 15°
2026-04-26 00:08 -40.67271 174.97940 11027 ft 303 kts 15°
2026-04-26 00:08 -40.65247 174.98789 10946 ft 314 kts 15°
2026-04-26 00:08 -40.63099 174.99589 10696 ft 324 kts
2026-04-26 00:08 -40.60875 175.00047 10460 ft 323 kts
2026-04-26 00:09 -40.58650 175.00396 10224 ft 321 kts
2026-04-26 00:09 -40.56435 175.00726 9987 ft 318 kts
2026-04-26 00:09 -40.54317 175.01046 9841 ft 303 kts
2026-04-26 00:09 -40.52258 175.01360 9624 ft 292 kts
2026-04-26 00:10 -40.50239 175.01667 9339 ft 285 kts
2026-04-26 00:10 -40.48303 175.01962 8973 ft 283 kts
2026-04-26 00:10 -40.46360 175.02258 8596 ft 280 kts
2026-04-26 00:10 -40.44429 175.02552 8230 ft 278 kts
2026-04-26 00:11 -40.42511 175.02846 7869 ft 276 kts
2026-04-26 00:11 -40.40607 175.03137 7519 ft 275 kts
2026-04-26 00:11 -40.38716 175.03426 7167 ft 273 kts
2026-04-26 00:11 -40.36822 175.03716 6833 ft 278 kts
2026-04-26 00:12 -40.34889 175.04157 6508 ft 288 kts 15°
2026-04-26 00:12 -40.33147 175.05481 6173 ft 292 kts 36°
2026-04-26 00:12 -40.31608 175.07223 5846 ft 292 kts 40°
2026-04-26 00:12 -40.30111 175.09015 5522 ft 291 kts 40°
2026-04-26 00:13 -40.28624 175.10805 5200 ft 290 kts 40°
2026-04-26 00:13 -40.27143 175.12591 4877 ft 289 kts 40°
2026-04-26 00:13 -40.25684 175.14360 4543 ft 281 kts 40°
2026-04-26 00:13 -40.24224 175.15988 4215 ft 271 kts 31°
2026-04-26 00:14 -40.23176 175.16826 4008 ft 263 kts 25°
2026-04-26 00:14 -40.21571 175.17911 3684 ft 256 kts 22°
2026-04-26 00:14 -40.19994 175.18937 3364 ft 250 kts 22°
2026-04-26 00:14 -40.18451 175.19931 3032 ft 244 kts 21°
2026-04-26 00:15 -40.16910 175.20803 2712 ft 238 kts 18°
2026-04-26 00:15 -40.15389 175.21600 2378 ft 233 kts 17°
2026-04-26 00:15 -40.13906 175.22376 2119 ft 224 kts 17°
2026-04-26 00:15 -40.12508 175.23065 2037 ft 204 kts 13°
2026-04-26 00:16 -40.11195 175.23337 2045 ft 180 kts 357°
2026-04-26 00:16 -40.10026 175.23272 2031 ft 156 kts 348°
2026-04-26 00:16 -40.09032 175.23038 2020 ft 134 kts 340°
2026-04-26 00:16 -40.08245 175.22591 2016 ft 117 kts 321°
2026-04-26 00:17 -40.07667 175.21868 2034 ft 115 kts 309°
2026-04-26 00:17 -40.07163 175.21053 2020 ft 117 kts 307°
2026-04-26 00:17 -40.06657 175.20216 2029 ft 117 kts 307°
2026-04-26 00:17 -40.06168 175.19372 2023 ft 116 kts 306°
2026-04-26 00:18 -40.05697 175.18547 2079 ft 112 kts 306°
2026-04-26 00:18 -40.05229 175.17744 2043 ft 112 kts 307°
2026-04-26 00:18 -40.04740 175.16947 2043 ft 114 kts 314°
2026-04-26 00:18 -40.04144 175.16228 2045 ft 116 kts 318°
2026-04-26 00:19 -40.03574 175.15499 2016 ft 114 kts 309°
2026-04-26 00:19 -40.03095 175.14677 2036 ft 114 kts 303°
2026-04-26 00:19 -40.02679 175.13821 2018 ft 113 kts 303°
2026-04-26 00:19 -40.02258 175.12979 1990 ft 109 kts 303°
2026-04-26 00:20 -40.01837 175.12169 1866 ft 107 kts 305°
2026-04-26 00:20 -40.01412 175.11382 1612 ft 105 kts 305°
2026-04-26 00:20 -40.00987 175.10605 1483 ft 105 kts 305°
2026-04-26 00:20 -40.00558 175.09832 1396 ft 105 kts 307°
2026-04-26 00:21 -40.00127 175.09062 1230 ft 105 kts 307°
2026-04-26 00:21 -39.99693 175.08294 1052 ft 105 kts 308°
2026-04-26 00:21 -39.99260 175.07533 940 ft 104 kts 308°
2026-04-26 00:21 -39.98829 175.06779 800 ft 104 kts 306°
2026-04-26 00:22 -39.98402 175.06032 662 ft 102 kts 306°
2026-04-26 00:22 -39.97977 175.05291 516 ft 102 kts 306°
2026-04-26 00:22 -39.97553 175.04553 389 ft 102 kts 308°
2026-04-26 00:22 -39.97122 175.03808 226 ft 104 kts 308°
2026-04-26 00:23 -39.96684 175.03065 60 ft 101 kts 305°
2026-04-26 00:23 -39.96292 175.02372 34 ft 84 kts 306°
2026-04-26 00:23 -39.96094 175.02002 26 ft 6 kts 302°
2026-04-26 00:23 -39.96092 175.01998 26 ft 0 kts 302°